Regional Weather Roundup
Issued by NWS

Home | Current Version | Previous Version | Text Only | Print | Product List | Glossary Off
Versions: 1 2 3 4 5 6 7 8 9 10 11 12 13 14 15 16 17 18 19 20 21 22 23 24 25 26 27 28 29 30 31 32 33 34 35 36 37 38 39 40 41 42 43 44 45 46 47 48 49 50

000
ASUS43 KLSX 240707
RWRMO

WEATHER SUMMARY FOR MISSOURI
NATIONAL WEATHER SERVICE SPRINGFIELD MO
200 AM CDT WED AUG 24 2016

NOTE: "FAIR" INDICATES FEW OR NO CLOUDS BELOW 12,000 FEET WITH NO
       SIGNIFICANT WEATHER AND/OR OBSTRUCTIONS TO VISIBILITY.
       CURRENT SKY AND/OR WEATHER CONDITIONS ARE NOT AVAILABLE FOR
       CHILLICOTHE AND FARMINGTON.

MOZ001>031-035>038-043-044-053-054-240800-
...NORTHERN AND WESTERN MISSOURI...

CITY           SKY/WX    TMP DP  RH WIND       PRES   REMARKS
KANSAS CTY INT TSTM      71  32  23 SE5       29.95S
KANSAS C DTWN  LGT RAIN  78  71  79 W7G23     29.95R
LEE`S SUMMIT   CLEAR     78  70  76 S15       29.95S
ST JOSEPH      TSTM      72  69  90 NW7G26    29.98R FOG
CHILLICOTHE      N/A     78  71  79 S9        29.92F
KIRKSVILLE     CLOUDY    76  71  85 S9        29.97R

$$
MOZ066>068-077>081-088>096-101>105-240800-
...SOUTHWEST MISSOURI...

CITY           SKY/WX    TMP DP  RH WIND       PRES   REMARKS
SPRINGFIELD    PTCLDY    76  69  79 S14       30.05F
JOPLIN         PTCLDY    77  70  79 S16       30.01S
BRANSON        PTCLDY    73  70  88 S7        30.10F

$$
MOZ032>034-039>042-045>050-055>058-069>072-240800-
...CENTRAL MISSOURI...

CITY           SKY/WX    TMP DP  RH WIND       PRES   REMARKS
COLUMBIA       MOCLDY    75  72  90 S10       30.01F
JEFFERSON CITY PTCLDY    77  72  84 S8        30.00F
ROLLA          CLOUDY    75  71  87 S13       30.06F
SEDALIA        PTCLDY    78  70  76 S14       29.99F
WHITEMAN AFB   MOCLDY    77  73  87 SW18      29.95F
OSAGE BEACH    CLOUDY    76  71  85 S10       30.04S

$$
MOZ051-052-059>065-240800-
...EAST CENTRAL MISSOURI...

CITY           SKY/WX    TMP DP  RH WIND       PRES   REMARKS
ST LOUIS INTL  PTCLDY    75  72  90 S9        30.07F
SPIRIT OF STL  CLEAR     71  71 100 E5        30.04F FOG
ST CHARLES     CLEAR     72  72 100 SE5       30.05F

$$
MOZ072>076-082>087-097>100-106>115-240800-
...SOUTH CENTRAL AND SOUTHEAST MISSOURI...

CITY           SKY/WX    TMP DP  RH WIND       PRES   REMARKS
CAPE GIRARDEAU CLEAR     74  72  93 S9        30.11S
FARMINGTON     PTCLDY    73  72  96 S7        30.11F
POPLAR BLUFF   CLOUDY    75  74  96 CALM      30.10F
WEST PLAINS    CLOUDY    76  71  85 S8        30.13F

$$



USA.gov is the U.S. government's official web portal to all federal, state and local government web resources and services.